Location: Adaghas
(31.2259°N, 9.0496°W)
Time: 03:20:06
(UTC+00:00)

CENTAUR R/B - Pass Details

Date: 18 September 2020
Orbit: 755 x 1433 km, 63.4° (Epoch: 02 October)

Event Time Altitude Azimuth Distance (km) Brightness Sun altitude
Rises 21:16:17 0° 336° (NNW) 4,253 6.5 -33.7°
Reaches altitude 10° 21:19:10 10° 342° (NNW) 3,357 5.7 -34.2°
Enters shadow 21:25:43 45° 27° (NNE) 1,827 3.8 -35.5°
